Regional Weather Roundup
Issued by NWS

Home | Current Version | Previous Version | Graphics & Text | Print | Product List | Glossary On
Versions: 1 2 3 4 5 6 7 8 9 10 11 12 13 14 15 16 17 18 19 20 21 22 23 24 25 26 27 28 29 30 31 32 33 34 35 36 37 38 39 40 41 42 43 44 45 46 47 48 49 50
000
ASUS45 KABQ 302010
RWRNM
WEATHER ROUNDUP FOR NEW MEXICO
NATIONAL WEATHER SERVICE ALBUQUERQUE NM
200 PM MDT TUE SEP 30 2014

NOTE: "FAIR" MEANS FEW OR NO CLOUDS BELOW 12,000 FEET AGL WITH NO
       SIGNIFICANT WEATHER OR OBSTRUCTIONS TO VISION.

      THIS PRODUCT IS RELEASED AS TWO VERSIONS.  ONE VERSION NEAR
      THE TOP OF THE HOUR CONTAINING PRELIMINARY DATA FROM ALBUQUERQUE
      AND OTHER STATIONS.  A FINAL VERSION WITH ADDITIONAL DATA IS
      ISSUED ABOUT 10 MINUTES AFTER THE HOUR.

NMZ501-503-504-510>518-302100-
NORTHWEST PLATEAU/NORTHCENTRAL MOUNTAINS

CITY           SKY/WX    TMP DP  RH WIND       PRES   REMARKS
FARMINGTON     SUNNY     65  35  33 NW5G17    30.00F
LOS ALAMOS     SUNNY     61  32  33 NE5       30.04F
SANTA FE       SUNNY     69  28  21 W15G21    29.98F
TAOS           MOSUNNY   63  34  34 S12G21    30.01F
ANGEL FIRE     FAIR      56  31  38 W10G22    30.06F

$$
NMZ402-403-502-505>509-302100-
WESTCENTRAL MOUNTAINS/SOUTHWEST MOUNTAINS

CITY           SKY/WX    TMP DP  RH WIND       PRES   REMARKS
GALLUP         MOSUNNY   66  35  31 W14       30.05F
GRANTS         SUNNY     70  27  19 NW12G17   30.04F
SILVER CITY    SUNNY     73  27  17 NW15G21   30.02F

$$
NMZ407-409-411-412-302100-
SOUTHERN DESERTS

CITY           SKY/WX    TMP DP  RH WIND       PRES   REMARKS
LORDSBURG      FAIR      77  36  22 MISG      29.95F
DEMING         SUNNY     79  39  23 W18       29.94F
LAS CRUCES     SUNNY     80  39  22 W17G23    29.95F
HOLLOMAN AFB   MOSUNNY   82  30  15 SW16      29.89F
ALAMOGORDO     MOSUNNY   81  32  17 W8G18     29.92F
T OR C         SUNNY     76  37  24 MISG      29.93F

$$
NMZ519>523-302100-
CENTRAL VALLEYS/CENTRAL HIGHLANDS

CITY           SKY/WX    TMP DP  RH WIND       PRES   REMARKS
ALBUQUERQUE    MOSUNNY   71  31  22 NW10G17   29.97F
DOUBLE EAGLE   MOSUNNY   68  34  28 SW6       30.00F
MORIARTY ARPT  FAIR      70  28  20 NW14G21   29.99F
CLINES CORNERS SUNNY     67  30  25 W13       30.00F
BELEN          FAIR      71  32  23 SW5       29.96F
SOCORRO        FAIR      74  34  23 S5        29.95F

$$
NMZ524>526-539-540-302100-
SOUTHCENTRAL MOUNTAINS

CITY           SKY/WX    TMP DP  RH WIND       PRES   REMARKS
RUIDOSO        NOT AVBL

$$
NMZ527>531-302100-
NORTHEAST HIGHLANDS/NORTHEAST PLAINS

CITY           SKY/WX    TMP DP  RH WIND       PRES   REMARKS
LAS VEGAS      SUNNY     70  29  21 S8        29.94F
RATON          SUNNY     70  31  23 SE7G18    29.87F
CLAYTON        SUNNY     72  35  25 VRB3      29.84F

$$
NMZ532>537-302100-
EASTCENTRAL PLAINS

CITY           SKY/WX    TMP DP  RH WIND       PRES   REMARKS
TUCUMCARI      SUNNY     80  35  19 W18       29.81F
CANNON AFB     SUNNY     79  41  25 W17G24    29.87F
CLOVIS AIRPORT   N/A     79  43  27 W12       29.89F

$$
NMZ028-029-538-302100-
SOUTHEAST PLAINS

CITY           SKY/WX    TMP DP  RH WIND       PRES   REMARKS
ROSWELL        SUNNY     81  44  27 SE6       29.85F
CARLSBAD       SUNNY     85  55  35 SW7       29.83F
HOBBS          SUNNY     82  52  34 W17G24    29.87F


$$



USA.gov is the U.S. government's official web portal to all federal, state and local government web resources and services.